Probability
3 2 1 0 0 1 1 0 0 0 0 0 0 0 0 0 0 0 0 0 0 0 0 0 0 0 0 0 0 0 0 0 0 0 0 0 0 0 0 0 0 0 0
3 2 1 0 1 2 2 1 0 0 0 0 0 0 0 0 0 0 0 0 0 0 0 0 0 0 0 0 0 0 0 0 0 0 0 0 0 0 0 0 0 0 0
3 3 2 1 2 3 2 1 0 0 0 0 0 0 0 0 0 0 0 0 0 0 0 0 0 0 0 0 0 0 0 0 0 0 0 0 0 0 0 0 0 0 0
3 3 1 1 1 2 1 0 0 0 0 0 0 0 0 0 0 0 0 0 0 0 0 0 0 0 0 0 0 0 0 0 0 0 0 0 0 0 0 0 0 0 0
2 2 1 1 1 1 0 0 0 0 0 0 0 0 0 0 0 0 0 0 0 0 0 0 0 0 0 0 0 0 0 0 0 0 0 0 0 0 0 0 0 0 0
1 2 2 2 1 0 0 0 0 0 0 0 0 0 0 0 0 0 0 0 0 0 0 0 0 0 0 0 0 0 0 0 0 0 0 0 0 0 0 0 0 0 0
1 1 2 2 1 0 0 0 0 0 0 0 0 0 0 0 0 0 0 0 0 0 0 0 0 0 0 0 0 0 0 0 0 0 0 0 0 0 0 0 0 0 0
1 1 1 1 0 0 0 0 0 0 0 0 0 0 0 0 0 0 0 0 0 0 0 0 0 0 0 0 0 0 0 0 0 0 0 0 0 0 0 0 0 0 0
1 0 0 0 0 0 1 0 0 0 0 0 0 0 0 0 0 0 0 0 0 0 0 0 0 0 0 0 0 0 0 0 0 0 0 0 0 0 0 0 0 0 0
0 0 0 0 0 0 0 0 0 0 0 0 0 0 0 0 0 0 0 0 0 0 0 0 0 0 0 0 0 0 0 0 0 0 0 0 0 0 0 0 0 0 0
0 0 0 0 0 0 0 0 0 0 0 0 0 0 0 0 0 0 0 0 0 0 0 0 0 0 0 0 0 0 0 0 0 0 0 0 0 0 0 0 0 0 0
1 1 1 1 0 0 0 0 0 0 0 0 0 0 0 0 0 0 0 0 0 0 0 0 0 0 0 0 0 0 0 0 0 0 0 0 0 0 0 0 0 0 0
2 2 2 2 1 1 0 0 0 0 0 0 0 0 0 0 0 0 0 0 0 0 0 0 0 0 0 0 0 0 0 0 0 0 0 0 0 0 0 0 0 0 0
3 3 3 2 2 1 0 0 0 0 0 0 0 0 0 0 0 0 0 0 0 0 0 0 0 0 0 0 0 0 0 0 0 0 0 0 0 0 0 0 0 0 0
3 2 2 1 1 1 0 0 0 0 0 0 0 0 0 0 0 0 0 0 0 0 0 0 0 0 0 0 0 0 0 0 0 0 0 0 0 0 0 0 0 0 0
3 2 1 0 0 0 0 0 0 0 0 0 0 0 0 0 0 0 0 0 0 0 0 0 0 0 0 0 0 0 0 0 0 0 0 0 0 0 0 0 0 0 0
2 1 0 0 0 0 0 0 0 0 0 0 0 0 0 0 0 0 0 0 0 0 0 0 0 0 0 0 0 0 0 0 0 0 0 0 0 0 0 0 0 0 0
1 0 0 0 0 0 0 0 0 0 0 0 0 0 0 0 0 0 0 0 0 0 0 0 0 0 0 0 0 0 0 0 0 0 0 0 0 0 0 0 0 0 0
0 0 0 0 0 0 0 0 0 0 0 0 0 0 0 0 0 0 0 0 0 0 0 0 0 0 0 0 0 0 0 0 0 0 0 0 0 0 0 0 0 0 0
0 0 0 0 0 0 0 0 0 0 0 0 0 0 0 0 0 0 0 0 0 0 0 0 0 0 0 0 0 0 0 0 0 0 0 0 0 0 0 0 0 0 0
0 0 0 0 0 0 0 0 0 0 0 0 0 0 0 0 0 0 0 0 0 0 0 0 0 0 0 0 0 0 0 0 0 0 0 0 0 0 0 0 0 0 0
0 0 0 0 0 0 0 0 0 0 0 0 0 0 0 0 0 0 0 0 0 0 0 0 0 0 0 0 0 0 0 0 0 0 0 0 0 0 0 0 0 0 0
0 0 0 0 0 0 0 0 0 0 0 0 0 0 0 0 0 0 0 0 0 0 0 0 0 0 0 0 0 0 0 0 0 0 0 0 0 0 0 0 0 0 0
0 0 0 0 0 0 0 0 0 0 0 0 0 0 0 0 0 0 0 0 0 0 0 0 0 0 0 0 0 0 0 0 0 0 0 0 0 0 0 0 0 0 0
0 0 0 0 0 0 0 0 0 0 0 0 0 0 0 0 0 0 0 0 0 0 0 0 0 0 0 0 0 0 0 0 0 0 0 0 0 0 0 0 0 0 0
0 0 0 0 0 0 0 0 0 0 0 0 0 0 0 0 0 0 0 0 0 0 0 0 0 0 0 0 0 0 0 0 0 0 0 0 0 0 0 0 0 0 0
Wind_Speed
4 4 4 3 2 3 3 3 3 2 2 3 3 4 3 3 3 3 3 4 4 4 4 4 4 4 3 3 3 3 2 2 1 2 2 2 3 3 4 3 2 1 0
4 4 4 4 3 4 3 3 3 3 3 3 4 4 4 4 4 3 4 4 4 4 4 5 5 4 5 4 3 3 3 2 1 2 3 3 3 3 3 4 4 3 1
5 4 4 3 3 4 4 3 3 4 3 3 4 4 4 4 4 4 3 3 4 4 4 5 5 5 5 4 4 4 3 3 2 2 2 2 2 3 3 4 5 4 3
5 5 4 4 4 4 4 3 3 3 3 4 4 5 4 5 5 5 4 4 4 4 4 5 5 5 5 5 4 4 4 4 3 2 2 2 2 3 3 3 4 4 4
6 5 5 5 5 5 4 3 4 3 4 4 5 5 5 5 6 6 4 4 4 3 4 4 5 6 7 5 4 4 4 3 3 3 2 3 3 3 3 3 3 3 3
7 5 5 6 5 5 4 4 4 3 4 4 5 5 5 5 7 9 7 4 3 3 3 3 3 4 5 6 6 6 4 3 3 3 2 3 3 3 3 3 3 3 3
7 6 6 6 5 5 5 4 4 3 4 4 4 4 4 4 7 8 9 4 3 3 3 3 4 5 5 4 5 5 4 4 3 2 2 3 3 3 3 4 4 3 4
7 7 6 6 6 5 5 4 3 3 3 3 3 4 4 3 5 6 7 3 2 2 3 3 3 4 6 6 4 4 4 3 3 2 2 3 3 3 3 3 4 5 4
7 7 7 7 6 5 5 4 3 3 3 3 3 3 3 2 3 4 5 2 2 2 2 3 3 3 6 9 5 5 5 5 5 5 6 6 7 7 5 3 3 3 4
8 7 7 7 7 6 5 4 3 3 3 3 2 3 3 3 2 2 3 1 2 2 2 2 4 4 5 6 3 4 5 5 6 6 6 6 5 5 6 2 1 2 3
7 7 7 6 6 6 5 4 4 3 3 2 2 2 2 3 4 2 2 1 1 2 2 1 1 3 4 5 5 3 5 6 5 5 4 4 3 3 2 2 2 2 3
7 7 7 6 6 6 5 4 4 4 3 3 2 2 1 2 3 2 2 0 2 2 2 1 1 4 5 6 5 6 8 8 4 4 3 3 3 3 3 3 4 3 4
8 7 6 6 5 5 5 4 3 3 2 2 2 1 1 1 1 2 1 2 3 1 1 3 5 6 6 5 6 8 6 3 3 3 3 4 3 3 3 3 4 4 5
8 7 6 6 6 5 4 3 3 3 2 2 2 1 1 1 1 1 0 1 2 2 2 4 7 7 5 6 6 4 3 3 3 3 4 4 3 3 3 3 3 3 4
7 6 6 5 5 5 4 2 3 2 4 4 2 2 2 1 1 2 1 1 1 2 3 2 2 2 2 3 3 3 3 3 3 3 3 3 3 3 3 3 3 3 4
6 6 5 4 4 4 4 3 2 3 4 5 4 4 2 3 3 2 1 2 3 4 3 2 3 3 3 3 3 3 3 3 3 3 3 3 3 4 4 3 3 4 5
6 5 4 4 4 4 4 4 3 1 2 3 4 4 4 4 3 3 3 4 4 4 2 2 3 3 3 3 3 3 3 3 3 3 3 3 4 4 4 4 4 4 5
5 5 5 4 4 4 4 4 4 4 3 2 3 5 5 5 5 5 4 2 2 2 2 3 3 3 3 3 3 3 3 3 3 3 3 4 4 4 4 4 4 5 5
5 4 3 3 3 3 3 3 3 4 3 3 2 2 5 5 5 5 4 2 3 3 3 3 3 3 3 3 3 3 3 3 4 3 3 4 4 4 5 5 5 7 6
3 5 4 3 3 3 3 3 3 3 3 3 3 3 3 2 2 3 3 3 3 3 3 3 3 3 3 3 3 3 3 3 4 3 4 4 4 4 5 7 6 6 5
3 4 4 3 2 3 3 3 3 3 2 2 3 3 5 3 4 4 4 4 4 4 3 3 3 3 3 2 3 3 4 3 3 3 4 4 4 5 5 5 6 6 6
3 2 2 2 2 2 2 2 2 2 2 2 2 3 5 3 3 3 3 3 3 3 3 3 3 3 2 3 3 3 4 4 4 4 4 4 5 5 5 6 6 6 6
2 2 2 1 2 2 2 2 2 2 2 2 2 2 2 3 2 3 3 3 2 2 2 2 2 2 2 2 2 3 3 4 4 4 4 5 5 5 5 6 8 8 7
2 2 2 2 1 1 1 1 1 1 1 1 1 2 2 2 2 2 2 2 2 2 2 2 2 4 5 4 3 3 3 3 4 4 5 5 6 6 5 6 7 8 8
1 1 2 1 1 1 1 1 1 1 1 1 1 1 1 1 1 2 2 1 2 2 2 3 3 3 5 6 5 3 4 5 6 5 5 5 7 7 7 7 7 7 8
1 1 1 1 1 1 1 0 0 0 0 0 0 0 1 1 2 2 2 2 2 2 3 3 4 5 5 4 5 5 6 7 8 9 6 6 7 7 7 7 8 8 8
Wind_Direction
157 136 130 127 120 107 87 87 83 81 90 89 72 73 66 57 53 48 38 36 33 27 27 39 32 26 17 10 10 12 18 42 38 323 336 352 14 8 355 348 350 1 57
147 138 131 130 132 120 110 104 102 89 74 85 83 74 64 55 51 47 43 42 40 33 27 36 32 27 19 9 16 18 12 13 37 343 335 352 0 356 358 349 353 7 6
141 139 139 140 121 109 103 92 86 91 82 77 79 75 65 56 46 39 44 46 46 42 40 43 37 30 19 12 15 14 4 4 14 12 339 345 349 356 3 353 353 349 347
146 150 143 134 125 113 99 91 79 79 81 75 72 70 65 59 43 28 27 43 45 45 56 60 51 43 31 13 13 8 5 5 0 4 348 341 344 354 17 357 346 339 335
150 150 147 134 122 114 110 105 90 74 77 80 76 69 59 57 39 29 15 28 38 42 55 71 70 61 46 32 21 6 5 6 1 358 349 350 353 4 358 341 340 325 320
147 142 126 120 114 114 117 109 97 83 75 82 85 80 64 54 44 35 19 14 19 35 38 54 81 62 41 28 12 6 10 17 2 356 346 350 340 342 342 338 334 342 322
146 138 132 128 127 130 128 112 112 105 89 86 88 90 83 61 45 28 11 5 15 23 32 34 32 43 34 7 353 346 344 336 337 338 343 335 329 334 343 332 326 318 293
145 140 140 136 136 133 127 127 128 119 112 109 107 106 99 71 46 23 1 1 14 21 37 37 46 41 19 11 357 354 344 336 313 328 321 307 308 305 303 297 294 301 298
147 147 147 144 141 140 139 140 133 125 123 125 126 120 114 97 54 27 7 356 8 12 39 45 48 54 22 15 9 348 338 334 332 332 318 305 303 310 309 325 325 328 315
154 152 149 146 146 148 147 142 136 132 139 144 140 136 135 134 120 56 23 356 352 350 16 44 39 37 17 9 1 341 330 323 329 325 314 308 302 301 304 289 298 311 308
146 143 143 143 146 144 141 141 141 138 139 145 141 138 144 145 147 134 93 17 339 344 353 3 7 3 349 338 331 311 304 308 308 308 305 306 312 313 310 299 292 278 285
141 143 144 146 149 147 140 144 146 146 152 159 150 152 161 143 146 169 162 263 331 337 326 338 337 330 323 316 311 302 305 311 301 301 301 303 304 302 299 299 297 293 277
141 144 146 147 146 145 146 150 146 144 149 155 147 157 152 120 138 148 168 300 304 302 304 312 316 309 308 300 293 300 305 299 294 294 292 287 282 285 295 299 295 292 291
148 152 154 153 149 144 144 150 148 155 160 162 166 177 174 148 135 138 229 285 306 303 303 301 302 295 289 289 297 294 280 271 271 269 272 275 282 291 291 288 290 293 295
155 157 156 152 150 145 138 143 156 164 171 170 176 169 163 176 185 162 180 253 278 283 303 289 286 291 293 293 292 288 288 295 293 289 287 293 296 297 293 288 285 287 285
158 159 155 152 148 147 147 134 103 156 151 147 153 159 158 172 179 180 211 271 292 302 312 289 288 290 292 296 299 302 302 304 296 296 296 295 296 293 290 291 289 288 287
158 157 152 154 156 158 159 159 154 145 167 174 175 177 183 192 201 219 247 280 288 292 279 272 278 284 289 293 295 298 298 302 301 294 292 294 295 296 295 293 290 288 285
154 156 154 156 160 165 168 170 168 171 180 206 216 202 197 206 219 230 242 283 286 262 247 260 269 275 282 285 288 293 298 304 309 302 298 301 301 300 299 295 291 289 288
148 155 157 154 160 166 169 172 175 180 180 182 178 202 211 218 228 235 226 227 246 253 252 254 260 268 276 282 286 287 288 292 300 304 299 296 296 297 295 292 290 292 291
148 158 157 158 165 170 175 179 181 183 186 185 191 195 184 194 217 230 226 234 244 253 256 257 259 264 272 278 282 285 288 292 298 298 299 297 292 289 288 289 290 290 286
141 156 163 169 179 177 180 186 183 181 189 194 199 194 184 200 217 224 225 228 236 246 253 257 257 261 262 269 278 281 283 284 285 288 292 294 291 288 287 285 286 286 287
136 151 169 177 176 174 184 184 176 180 193 206 211 205 202 212 219 225 230 234 235 235 241 249 254 251 249 257 268 277 282 283 284 284 286 287 287 286 288 289 290 291 291
143 157 172 177 165 170 190 195 191 196 202 207 203 204 211 226 227 232 237 242 247 249 250 250 261 269 269 268 268 271 276 280 285 291 291 291 290 287 286 287 289 291 290
152 165 173 173 165 168 187 206 206 207 212 222 223 218 218 231 241 249 249 249 252 258 261 265 269 277 284 284 275 271 274 285 292 292 291 288 286 284 285 286 286 287 289
161 162 158 164 170 171 185 208 212 213 228 247 253 258 259 264 273 275 269 266 271 273 283 287 284 283 286 287 285 285 290 294 296 300 295 288 282 281 282 283 284 287 285
152 143 142 144 151 151 155 178 215 297 294 303 311 306 300 294 287 286 290 291 289 284 282 281 283 289 292 294 293 290 291 293 294 295 293 287 282 278 280 279 282 283 282